TimeCDT,TemperatureF,Dew PointF,Humidity,Sea Level PressureIn,VisibilityMPH,Wind Direction,Wind SpeedMPH,Gust SpeedMPH,PrecipitationIn,Events,Conditions,WindDirDegrees,DateUTC
12:13 AM,60.8,55.4,82,29.75,1.5,ENE,5.8,-,N/A,,Haze,60,2013-09-19 05:13:00
12:33 AM,60.8,55.4,82,29.75,1.5,ENE,4.6,-,N/A,,Haze,60,2013-09-19 05:33:00
12:54 AM,62.6,57.2,82,29.75,1.5,NE,3.5,-,N/A,,Haze,50,2013-09-19 05:54:00
1:13 AM,62.6,57.2,82,29.75,1.2,ENE,4.6,-,N/A,,Haze,70,2013-09-19 06:13:00
1:33 AM,62.6,57.2,82,29.76,0.8,ENE,4.6,-,N/A,,Haze,70,2013-09-19 06:33:00
1:54 AM,62.6,57.2,82,29.77,0.8,Calm,Calm,-,N/A,,Haze,0,2013-09-19 06:54:00
2:13 AM,62.6,57.2,82,29.76,0.8,NE,4.6,-,N/A,,Haze,50,2013-09-19 07:13:00
2:33 AM,62.6,57.2,82,29.75,1.0,NE,6.9,-,N/A,,Haze,50,2013-09-19 07:33:00
2:54 AM,62.6,57.2,82,29.74,1.5,East,3.5,-,N/A,,Haze,100,2013-09-19 07:54:00
3:13 AM,62.6,57.2,82,29.74,1.8,ENE,4.6,-,N/A,,Haze,70,2013-09-19 08:13:00
3:33 AM,62.6,57.2,82,29.74,2.0,Calm,Calm,-,N/A,,Haze,0,2013-09-19 08:33:00
3:53 AM,62.6,57.2,82,29.73,1.8,NE,4.6,-,N/A,,Haze,40,2013-09-19 08:53:00
4:13 AM,62.6,57.2,82,29.72,1.8,NE,3.5,-,N/A,,Haze,50,2013-09-19 09:13:00
4:33 AM,62.6,57.2,82,29.71,2.0,ENE,4.6,-,N/A,,Haze,60,2013-09-19 09:33:00
4:53 AM,62.6,57.2,82,29.71,2.0,NE,3.5,-,N/A,,Haze,50,2013-09-19 09:53:00
5:13 AM,62.6,57.2,82,29.71,2.0,ENE,3.5,-,N/A,,Haze,60,2013-09-19 10:13:00
5:33 AM,62.6,57.2,82,29.70,1.8,NE,4.6,-,N/A,,Haze,40,2013-09-19 10:33:00
5:54 AM,62.6,57.2,82,29.70,1.8,ENE,5.8,-,N/A,,Haze,70,2013-09-19 10:54:00
6:13 AM,62.6,57.2,82,29.72,1.8,Calm,Calm,-,N/A,,Haze,0,2013-09-19 11:13:00
6:33 AM,62.6,57.2,82,29.71,1.8,NE,3.5,-,N/A,,Haze,40,2013-09-19 11:33:00
6:54 AM,62.6,57.2,82,29.71,1.8,NE,4.6,-,N/A,,Haze,40,2013-09-19 11:54:00
7:13 AM,62.6,57.2,82,29.67,1.2,NE,8.1,-,N/A,,Haze,50,2013-09-19 12:13:00
7:34 AM,62.6,57.2,82,29.70,1.2,East,9.2,-,N/A,,Haze,80,2013-09-19 12:34:00
7:53 AM,62.6,57.2,82,29.70,1.0,East,9.2,-,N/A,,Haze,80,2013-09-19 12:53:00
8:13 AM,62.6,57.2,82,29.70,1.0,East,11.5,-,N/A,,Haze,80,2013-09-19 13:13:00
8:33 AM,62.6,57.2,82,29.72,1.0,East,6.9,-,N/A,,Haze,90,2013-09-19 13:33:00
8:53 AM,62.6,57.2,82,29.72,1.0,ENE,6.9,-,N/A,,Haze,70,2013-09-19 13:53:00
9:13 AM,62.6,57.2,82,29.72,1.0,ENE,5.8,-,N/A,,Haze,60,2013-09-19 14:13:00
9:33 AM,62.6,57.2,82,29.70,1.2,NE,3.5,-,N/A,,Haze,50,2013-09-19 14:33:00
9:53 AM,62.6,57.2,82,29.70,1.5,NE,3.5,-,N/A,,Haze,50,2013-09-19 14:53:00
10:13 AM,64.4,59.0,83,29.70,1.5,ENE,3.5,-,N/A,,Haze,70,2013-09-19 15:13:00
10:33 AM,64.4,59.0,83,29.70,1.8,ENE,3.5,-,N/A,,Haze,60,2013-09-19 15:33:00
10:53 AM,64.4,60.8,88,29.68,1.8,ENE,3.5,-,N/A,,Haze,70,2013-09-19 15:53:00
11:13 AM,64.4,60.8,88,29.69,1.2,ENE,6.9,-,N/A,Thunderstorm,Haze,70,2013-09-19 16:13:00
11:33 AM,64.4,60.8,88,29.68,0.8,ENE,4.6,-,N/A,,Haze,60,2013-09-19 16:33:00
11:53 AM,64.4,60.8,88,29.70,0.5,ENE,3.5,-,N/A,,Haze,70,2013-09-19 16:53:00
12:13 PM,64.4,60.8,88,29.70,0.8,ENE,3.5,-,N/A,,Haze,60,2013-09-19 17:13:00
12:33 PM,64.4,60.8,88,29.70,0.5,ENE,5.8,-,N/A,,Haze,70,2013-09-19 17:33:00
12:53 PM,64.4,60.8,88,29.68,0.8,NNE,3.5,-,N/A,,Haze,30,2013-09-19 17:53:00
1:13 PM,64.4,60.8,88,29.66,0.8,NE,5.8,-,N/A,Thunderstorm,Overcast,40,2013-09-19 18:13:00
1:33 PM,64.4,60.8,88,29.69,0.8,South,3.5,-,N/A,Rain-Thunderstorm,Thunderstorms and Rain,190,2013-09-19 18:33:00
1:53 PM,64.4,60.8,88,29.68,2.5,SSW,3.5,-,0.18,Rain-Thunderstorm,Thunderstorms and Rain,210,2013-09-19 18:53:00
2:13 PM,64.4,60.8,88,29.70,7.0,SW,5.8,-,0.06,Rain-Thunderstorm,Thunderstorms and Rain,230,2013-09-19 19:13:00
2:33 PM,64.4,60.8,88,29.67,7.0,SW,6.9,-,0.13,Rain-Thunderstorm,Rain,220,2013-09-19 19:33:00
2:53 PM,64.4,60.8,88,29.63,7.0,Calm,Calm,-,0.15,Rain,Light Rain,0,2013-09-19 19:53:00
3:13 PM,64.4,60.8,88,29.62,7.0,Calm,Calm,-,N/A,,Clear,0,2013-09-19 20:13:00
3:33 PM,66.2,60.8,83,29.64,4.0,South,5.8,-,N/A,,Light Drizzle,170,2013-09-19 20:33:00
3:53 PM,62.6,57.2,82,29.66,0.2,South,6.9,-,N/A,,Haze,170,2013-09-19 20:53:00
4:13 PM,62.6,57.2,82,29.67,0.2,Calm,Calm,-,N/A,,Haze,0,2013-09-19 21:13:00
4:33 PM,62.6,57.2,82,29.67,0.2,Calm,Calm,-,N/A,,Haze,0,2013-09-19 21:33:00
4:53 PM,62.6,57.2,82,29.67,0.5,Calm,Calm,-,N/A,,Haze,0,2013-09-19 21:53:00
5:13 PM,62.6,57.2,82,29.68,0.8,Calm,Calm,-,N/A,,Overcast,0,2013-09-19 22:13:00
5:33 PM,62.6,57.2,82,29.68,0.2,SSE,4.6,-,N/A,,Haze,150,2013-09-19 22:33:00
5:53 PM,60.8,55.4,82,29.68,0.2,Calm,Calm,-,N/A,,Haze,0,2013-09-19 22:53:00
6:13 PM,62.6,57.2,82,29.68,0.2,East,3.5,-,N/A,,Haze,90,2013-09-19 23:13:00
6:33 PM,60.8,55.4,82,29.69,0.2,East,3.5,-,N/A,,Haze,90,2013-09-19 23:33:00
6:54 PM,60.8,55.4,82,29.69,0.2,Calm,Calm,-,N/A,,Haze,0,2013-09-19 23:54:00
7:13 PM,60.8,55.4,82,29.71,0.2,Calm,Calm,-,N/A,,Haze,0,2013-09-20 00:13:00
7:33 PM,60.8,55.4,82,29.69,0.2,Calm,Calm,-,N/A,,Haze,0,2013-09-20 00:33:00
7:54 PM,60.8,55.4,82,29.70,0.2,Calm,Calm,-,N/A,Rain,Light Rain,0,2013-09-20 00:54:00
8:13 PM,60.8,55.4,82,29.69,0.5,Calm,Calm,-,0.01,,Drizzle,0,2013-09-20 01:13:00
8:33 PM,60.8,55.4,82,29.68,0.8,Calm,Calm,-,0.01,,Haze,0,2013-09-20 01:33:00
8:54 PM,60.8,55.4,82,29.68,4.0,Calm,Calm,-,0.01,,Haze,0,2013-09-20 01:54:00
9:13 PM,60.8,55.4,82,29.68,4.0,Calm,Calm,-,N/A,,Haze,0,2013-09-20 02:13:00
9:33 PM,60.8,55.4,82,29.68,4.0,Calm,Calm,-,N/A,,Haze,0,2013-09-20 02:33:00
9:54 PM,60.8,55.4,82,29.67,1.0,Calm,Calm,-,N/A,,Haze,0,2013-09-20 02:54:00
10:13 PM,60.8,55.4,82,29.67,0.5,Calm,Calm,-,N/A,Rain,Light Rain,0,2013-09-20 03:13:00
10:33 PM,60.8,55.4,82,29.66,2.5,Calm,Calm,-,N/A,,Haze,0,2013-09-20 03:33:00
10:54 PM,64.4,60.8,88,29.67,7.0,West,9.2,-,N/A,,Overcast,280,2013-09-20 03:54:00
11:13 PM,64.4,59.0,83,29.67,7.0,West,4.6,-,N/A,,Overcast,280,2013-09-20 04:13:00
11:33 PM,64.4,59.0,83,29.67,10.0,West,4.6,-,N/A,,Scattered Clouds,280,2013-09-20 04:33:00
11:54 PM,62.6,57.2,82,29.67,10.0,Calm,Calm,-,N/A,,Scattered Clouds,0,2013-09-20 04:54:00